Weather History for Lugano, Switzerland

Change the Weather History Date:

Monday, September 16, 2013

  Actual Average Record
Temperature  
Mean Temperature 58 °F -  
Max Temperature 66 °F 64 °F - ()
Min Temperature 51 °F 51 °F - ()
Degree Days  
Heating Degree Days 6    
Growing Degree Days 8 (Base 50)    
Moisture  
Dew Point 56 °F    
Average Humidity 89    
Maximum Humidity 100    
Minimum Humidity 59    
Precipitation  
Precipitation 0.00 in 0.20 in - ()
Sea Level Pressure  
Sea Level Pressure 29.74 in    
Wind  
Wind Speed 3 mph ()    
Max Wind Speed 6 mph    
Max Gust Speed -    
Visibility 5.5 miles    
Events Fog , Rain    
T = Trace of Precipitation, MM = Missing Value Source: Averaged Metar Reports

Daily Weather History Graph

Daily Weather History Graph

Search for Another Location

Airport:

Trip Planner

Search our weather history database for the weather conditions in past years. The results will help you decide how hot, cold, wet, or windy it might be!

Date:

Astronomy

Sep. 16, 2013 Rise Set
Actual Time 7:03 AM CEST 7:33 PM CEST
Civil Twilight 6:33 AM CEST 8:03 PM CEST
Nautical Twilight 5:58 AM CEST 8:39 PM CEST
Astronomical Twilight 5:21 AM CEST 9:15 PM CEST
Moon 5:38 PM CEST (9/16) 3:22 AM CEST (9/16)
Length of Visible Light 13h 29m
Length of Day
12h 29m
Waxing Gibbous, 88% of the Moon is Illuminated
Sep 16
Waxing Gibbous
Sep 19
Full
Sep 27
Last Quarter
Oct 5
New
Oct 12
First Quarter

Hourly Weather History & Observations

Time (CEST) Temp. Dew Point Humidity Pressure Visibility Wind Dir Wind Speed Gust Speed Precip Events Conditions
12:00 AM 56 °F 56 °F 99% 29.86 in - North 2.3 mph - -  
12:20 AM 57.2 °F 55.4 °F 94% 29.86 in 6.2 mi Variable 2.3 mph - N/A   Overcast
12:50 AM 55.4 °F 55.4 °F 100% 29.83 in 6.2 mi North 5.8 mph - N/A   Overcast
1:00 AM 56 °F 55 °F 95% 29.85 in - North 5.8 mph - -  
1:20 AM 53.6 °F 53.6 °F 100% 29.83 in 6.2 mi North 5.8 mph - N/A   Partly Cloudy
1:50 AM 53.6 °F 53.6 °F 100% 29.83 in 6.2 mi Variable 2.3 mph - N/A   Partly Cloudy
2:20 AM 51.8 °F 51.8 °F 100% 29.83 in 6.2 mi NNW 4.6 mph - N/A   Unknown
2:50 AM 51.8 °F 51.8 °F 100% 29.83 in 6.2 mi Variable 1.2 mph - N/A   Partly Cloudy
3:00 AM 55 °F 53 °F 92% 29.83 in - NNW 3.5 mph - -  
3:20 AM 51.8 °F 51.8 °F 100% 29.80 in 1.7 mi North 3.5 mph - N/A   Scattered Clouds
3:50 AM 51.8 °F 51.8 °F 100% 29.80 in 6.2 mi Variable 3.5 mph - N/A   Scattered Clouds
4:00 AM 55 °F 53 °F 88% 29.81 in - NNW 2.3 mph - -  
4:20 AM 53.6 °F 53.6 °F 100% 29.80 in 6.2 mi North 2.3 mph - N/A   Scattered Clouds
4:50 AM 53.6 °F 53.6 °F 100% 29.80 in 6.2 mi North 3.5 mph - N/A   Mostly Cloudy
5:20 AM 53.6 °F 53.6 °F 100% 29.77 in 0.3 mi North 4.6 mph - N/A Fog Fog
5:50 AM 53.6 °F 53.6 °F 100% 29.77 in 0.2 mi North 5.8 mph - N/A Fog Fog
6:00 AM 54 °F 54 °F 98% 29.79 in - North 2.3 mph - -  
6:20 AM 51.8 °F 51.8 °F 100% 29.77 in 0.7 mi North 5.8 mph - N/A Fog Patches of Fog
6:50 AM 51.8 °F 51.8 °F 100% 29.77 in 0.7 mi North 4.6 mph - N/A Fog Patches of Fog
7:00 AM 54 °F 53 °F 96% 29.79 in - North 2.3 mph - -  
7:20 AM 51.8 °F 51.8 °F 100% 29.80 in 3.7 mi NNE 2.3 mph - N/A Fog Patches of Fog
7:50 AM 51.8 °F 51.8 °F 100% 29.80 in 5.0 mi NNW 3.5 mph - N/A   Partly Cloudy
8:20 AM 51.8 °F 51.8 °F 100% 29.80 in 6.2 mi NNW 4.6 mph - N/A   Partly Cloudy
8:50 AM 55.4 °F 55.4 °F 100% 29.80 in 6.2 mi Variable 1.2 mph - N/A   Partly Cloudy
9:00 AM 57 °F 54 °F 84% 29.80 in - NNE 1.2 mph - -  
9:20 AM 55.4 °F 55.4 °F 100% 29.80 in 6.2 mi Variable 2.3 mph - N/A   Partly Cloudy
9:50 AM 59.0 °F 55.4 °F 88% 29.80 in 6.2 mi Variable 1.2 mph - N/A   Scattered Clouds
10:00 AM 59 °F 54 °F 77% 29.79 in - ENE 1.2 mph - -  
10:20 AM 60.8 °F 55.4 °F 82% 29.80 in 6.2 mi Variable 1.2 mph - N/A   Scattered Clouds
10:50 AM 62.6 °F 57.2 °F 82% 29.77 in 6.2 mi Variable 1.2 mph - N/A   Scattered Clouds
11:20 AM 62.6 °F 55.4 °F 77% 29.77 in 6.2 mi Variable 3.5 mph - N/A   Mostly Cloudy
11:50 AM 64.4 °F 57.2 °F 77% 29.77 in 6.2 mi Variable 2.3 mph - N/A   Mostly Cloudy
12:00 PM 63 °F 55 °F 67% 29.77 in - SSW 2.3 mph - -  
12:20 PM 64.4 °F 55.4 °F 73% 29.77 in 6.2 mi Variable 2.3 mph - N/A   Mostly Cloudy
12:50 PM 64.4 °F 55.4 °F 73% 29.74 in 6.2 mi Variable 3.5 mph - N/A   Mostly Cloudy
1:00 PM 65 °F 54 °F 59% 29.74 in - North 3.5 mph - -  
1:20 PM 64.4 °F 57.2 °F 77% 29.74 in 6.2 mi Variable 1.2 mph - N/A   Mostly Cloudy
1:50 PM 66.2 °F 57.2 °F 73% 29.74 in 6.2 mi Variable 3.5 mph - N/A   Mostly Cloudy
2:20 PM 66.2 °F 57.2 °F 73% 29.74 in 6.2 mi Variable 2.3 mph - N/A   Mostly Cloudy
2:50 PM 66.2 °F 57.2 °F 73% 29.71 in 6.2 mi Variable 2.3 mph - N/A   Mostly Cloudy
3:00 PM 66 °F 56 °F 63% 29.71 in - West 3.5 mph - -  
3:20 PM 66.2 °F 59.0 °F 78% 29.71 in 6.2 mi Variable 3.5 mph - N/A   Mostly Cloudy
3:50 PM 64.4 °F 59.0 °F 83% 29.71 in 6.2 mi SSE 2.3 mph - N/A Rain Light Rain
4:00 PM 65 °F 57 °F 69% 29.70 in - NW 3.5 mph - -  
4:20 PM 62.6 °F 59.0 °F 88% 29.71 in 5.6 mi Variable 3.5 mph - N/A Rain Rain
4:50 PM 62.6 °F 59.0 °F 88% 29.71 in 6.2 mi Variable 2.3 mph - N/A   Mostly Cloudy
5:20 PM 62.6 °F 57.2 °F 82% 29.68 in 6.2 mi Variable 2.3 mph - N/A   Mostly Cloudy
5:50 PM 64.4 °F 59.0 °F 83% 29.68 in 6.2 mi Variable 3.5 mph - N/A   Mostly Cloudy
6:00 PM 64 °F 58 °F 76% 29.67 in - West 3.5 mph - -  
6:20 PM 62.6 °F 59.0 °F 88% 29.68 in 6.2 mi SSE 3.5 mph - N/A   Mostly Cloudy
6:50 PM 62.6 °F 59.0 °F 88% 29.68 in 6.2 mi Variable 3.5 mph - N/A   Mostly Cloudy
7:00 PM 63 °F 57 °F 76% 29.66 in - West 1.2 mph - -  
7:20 PM 62.6 °F 59.0 °F 88% 29.65 in 6.2 mi Variable 2.3 mph - N/A   Mostly Cloudy
7:50 PM 60.8 °F 59.0 °F 94% 29.65 in 6.2 mi Variable 2.3 mph - N/A   Mostly Cloudy
8:20 PM 60.8 °F 59.0 °F 94% 29.65 in 6.2 mi North 2.3 mph - N/A   Mostly Cloudy
8:50 PM 60.8 °F 59.0 °F 94% 29.65 in 6.2 mi Variable 3.5 mph - N/A   Mostly Cloudy
9:00 PM 62 °F 57 °F 78% 29.64 in - North 4.6 mph - -  
9:20 PM 59.0 °F 57.2 °F 94% 29.65 in 6.2 mi North 3.5 mph - N/A   Mostly Cloudy
9:50 PM 59.0 °F 57.2 °F 94% 29.62 in 6.2 mi Variable 1.2 mph - N/A   Mostly Cloudy
10:20 PM 59.0 °F 57.2 °F 94% 29.62 in 6.2 mi Variable 2.3 mph - N/A   Scattered Clouds
10:50 PM 59.0 °F 57.2 °F 94% 29.62 in 6.2 mi NNW 1.2 mph - N/A   Mostly Cloudy
11:20 PM 57.2 °F 57.2 °F 100% 29.59 in 6.2 mi North 5.8 mph - N/A   Scattered Clouds
11:50 PM 57.2 °F 55.4 °F 94% 29.59 in 6.2 mi North 4.6 mph - N/A   Scattered Clouds